Back to catalog

STARLINK-37565

AliveCommunicationsVLEO
NORAD 69458·PAYLOAD·🇺🇸 United States

Launched Jun 8, 2026 from Cape Canaveral Space Force Station

Loading…

Next Passes (next 24 hours)

TLE

FreshSource: CelesTrak SupGP

Epoch: Sep 14, 2026, 14:35 UTC

1 69458C 26127R   26257.60812500  .00033637  00000+0  99429-3 0  2578
2 69458  53.1576 193.4693 0001280 106.9425 286.5844 15.34358815    15

Track STARLINK-37565 in real time with AllMySat

Download on the App Store